CW5624 Weather Reports


Display with metric or nautical units.
time (UTC)temp
F
wind
direction
speed
MPH
gust
MPH
rain 1hr
in
rain 24hr
in
rain mn
in
humidity
%
barometer
mb
20210928062414 66 36 0.0 1.0 0.00 0.00 0.00 81 1008.6
20210928061415 66 36 0.0 3.0 0.00 0.00 0.00 81 1008.8
20210928060415 66 347 0.0 2.0 0.00 0.00 0.00 80 1008.8
20210928055415 66 306 0.0 2.0 0.00 0.00 0.00 80 1008.8
20210928054415 66 50 0.0 3.0 0.00 0.00 0.00 80 1008.9
20210928053415 66 55 0.0 2.0 0.00 0.00 0.00 81 1009.0
20210928052416 66 36 0.0 4.0 0.00 0.00 0.00 81 1009.0
20210928051415 66 82 0.0 2.0 0.00 0.00 0.00 81 1008.9
20210928050415 66 84 0.0 4.0 0.00 0.00 0.00 81 1008.9
20210928045415 66 65 2.0 4.0 0.00 0.00 0.00 82 1009.0
20210928044415 66 71 0.0 2.0 0.00 0.00 0.00 82 1008.9
20210928043416 66 57 0.0 6.0 0.00 0.00 0.00 82 1009.0
20210928042415 66 44 0.0 2.0 0.00 0.00 0.00 81 1009.1
20210928041416 66 44 0.0 3.0 0.00 0.00 0.00 81 1009.1
20210928040416 66 28 0.0 5.0 0.00 0.00 0.00 81 1009.1
20210928035416 66 74 0.0 3.0 0.00 0.00 0.00 81 1009.2
20210928034415 66 78 0.0 4.0 0.00 0.00 0.00 81 1009.3
20210928033415 66 42 0.0 3.0 0.00 0.00 0.00 81 1009.3
20210928032415 66 322 0.0 3.0 0.00 0.00 0.00 81 1009.3
20210928031415 66 22 0.0 2.0 0.00 0.00 0.00 82 1009.3
20210928030415 66 332 0.0 1.0 0.00 0.00 0.00 82 1009.2
20210928025415 66 273 0.0 1.0 0.00 0.00 0.00 82 1009.3
20210928024415 66 44 0.0 3.0 0.00 0.00 0.00 82 1009.4
20210928023416 66 12 0.0 4.0 0.00 0.00 0.00 82 1009.4
20210928022415 66 55 0.0 3.0 0.00 0.00 0.00 82 1009.5
20210928021415 66 15 1.0 2.0 0.00 0.00 0.00 81 1009.5
20210928020415 66 15 0.0 2.0 0.00 0.00 0.00 81 1009.5
20210928015417 66 14 0.0 4.0 0.00 0.00 0.00 81 1009.6
20210928014416 66 16 0.0 3.0 0.00 0.00 0.00 80 1009.6
20210928013416 66 43 0.0 3.0 0.00 0.00 0.00 80 1009.5
20210928012415 66 32 0.0 3.0 0.00 0.00 0.00 80 1009.5
20210928011415 67 19 0.0 3.0 0.00 0.00 0.00 79 1009.4
20210928010416 67 34 0.0 3.0 0.00 0.00 0.00 79 1009.4
20210928005415 67 68 5.0 5.0 0.00 0.00 0.00 79 1009.4
20210928004416 67 63 0.0 2.0 0.00 0.00 0.00 79 1009.4
20210928003415 67 69 0.0 1.0 0.00 0.00 0.00 79 1009.3
20210928002415 67 72 0.0 1.0 0.00 0.00 0.00 78 1009.3
20210928001415 67 77 0.0 3.0 0.00 0.00 0.00 78 1009.2
20210928000416 67 188 0.0 3.0 0.00 0.00 0.00 78 1009.1
20210927235415 67 49 0.0 1.0 0.00 0.00 0.00 79 1009.0
20210927234416 67 42 1.0 2.0 0.00 0.00 0.00 79 1009.0
20210927233416 67 54 0.0 2.0 0.00 0.00 0.00 78 1009.0
20210927232416 67 42 3.0 4.0 0.00 0.00 0.00 78 1008.9
20210927231416 68 109 0.0 2.0 0.00 0.00 0.00 77 1009.0
20210927230416 68 60 0.0 1.0 0.00 0.00 0.00 76 1009.0
20210927225416 68 67 0.0 2.0 0.00 0.00 0.00 76 1009.0
20210927224416 68 70 0.0 3.0 0.00 0.00 0.00 75 1008.8
20210927223416 69 65 0.0 1.0 0.00 0.00 0.00 75 1008.6
20210927222416 69 65 0.0 2.0 0.00 0.00 0.00 74 1008.6
20210927221416 70 87 1.0 1.0 0.00 0.00 0.00 74 1008.6
20210927220416 70 84 0.0 4.0 0.00 0.00 0.00 74 1008.6
20210927215416 70 27 1.0 3.0 0.00 0.00 0.00 73 1008.6
20210927214416 71 77 0.0 4.0 0.00 0.00 0.00 73 1008.6
20210927213416 71 90 0.0 3.0 0.00 0.00 0.00 72 1008.7
20210927212416 71 39 0.0 6.0 0.00 0.00 0.00 72 1008.7
20210927211416 72 27 0.0 5.0 0.00 0.00 0.00 72 1008.9
20210927210416 72 33 0.0 4.0 0.00 0.00 0.00 71 1008.9
20210927205416 72 53 2.0 4.0 0.00 0.00 0.00 71 1009.0
20210927204416 72 11 0.0 6.0 0.00 0.00 0.00 69 1009.0
20210927203416 73 49 0.0 3.0 0.00 0.00 0.00 71 1009.0
20210927202417 73 42 2.0 4.0 0.00 0.00 0.00 71 1009.1
20210927201416 73 20 0.0 4.0 0.00 0.00 0.00 70 1008.9
20210927200416 73 271 0.0 6.0 0.00 0.00 0.00 68 1009.0
20210927195416 73 30 1.0 4.0 0.00 0.00 0.00 69 1009.1
20210927194416 72 62 0.0 4.0 0.00 0.00 0.00 70 1009.1
20210927193416 72 78 0.0 3.0 0.00 0.00 0.00 71 1009.2
20210927192416 72 103 0.0 3.0 0.00 0.00 0.00 70 1009.4
20210927191416 72 87 0.0 5.0 0.00 0.00 0.00 69 1009.5
20210927190416 73 20 1.0 2.0 0.00 0.00 0.00 69 1009.7
20210927185416 73 20 0.0 8.0 0.00 0.00 0.00 68 1009.6
20210927184415 72 163 0.0 5.0 0.00 0.00 0.00 68 1009.7
20210927183416 72 90 0.0 5.0 0.00 0.00 0.00 68 1009.7
20210927182416 72 34 0.0 5.0 0.00 0.00 0.00 69 1009.9
20210927181416 72 54 0.0 4.0 0.00 0.00 0.00 70 1010.0
20210927180416 72 334 2.0 3.0 0.00 0.00 0.00 69 1010.0
20210927175416 71 24 0.0 2.0 0.00 0.00 0.00 70 1010.5
20210927174416 71 47 0.0 2.0 0.00 0.00 0.00 71 1010.8
20210927173416 72 44 0.0 2.0 0.00 0.00 0.00 72 1011.0
20210927172417 71 76 2.0 3.0 0.00 0.00 0.00 69 1011.2
20210927171416 71 21 0.0 2.0 0.00 0.00 0.00 69 1011.1
20210927170416 71 303 0.0 1.0 0.00 0.00 0.00 69 1011.4
20210927165416 71 46 0.0 3.0 0.00 0.00 0.00 68 1011.6
20210927164417 70 184 0.0 2.0 0.00 0.00 0.00 67 1011.9
20210927163416 71 208 2.0 5.0 0.00 0.00 0.00 67 1011.9
20210927162416 70 43 0.0 3.0 0.00 0.00 0.00 69 1011.9
20210927161416 70 43 0.0 1.0 0.00 0.00 0.00 70 1012.1
20210927160416 70 43 1.0 3.0 0.00 0.00 0.00 66 1012.2
20210927155416 70 55 2.0 3.0 0.00 0.00 0.00 67 1012.2
20210927154416 69 34 2.0 4.0 0.00 0.00 0.00 68 1012.3
20210927153417 68 67 0.0 4.0 0.00 0.00 0.00 67 1012.2
20210927152416 68 59 0.0 3.0 0.00 0.00 0.00 68 1012.2
20210927151416 67 55 0.0 3.0 0.00 0.00 0.00 69 1012.3
20210927150416 67 62 0.0 3.0 0.00 0.00 0.00 71 1012.4
20210927145416 66 336 0.0 2.0 0.00 0.00 0.00 73 1012.5
20210927144416 66 319 0.0 2.0 0.00 0.00 0.00 71 1012.7
20210927143416 65 321 0.0 2.0 0.00 0.00 0.00 72 1012.9
20210927142416 65 283 0.0 2.0 0.00 0.00 0.00 73 1013.0
20210927141416 64 69 0.0 3.0 0.00 0.00 0.00 74 1013.1
20210927140416 64 89 0.0 1.0 0.00 0.00 0.00 73 1013.1
20210927135416 64 91 0.0 2.0 0.00 0.00 0.00 74 1013.2
20210927134416 64 61 0.0 2.0 0.00 0.00 0.00 75 1013.2
20210927133418 63 46 0.0 2.0 0.00 0.00 0.00 76 1013.2
20210927132416 62 5 0.0 2.0 0.00 0.00 0.00 78 1013.1
20210927131416 60 12 0.0 2.0 0.00 0.00 0.00 81 1013.2
20210927130416 59 62 0.0 1.0 0.00 0.00 0.00 82 1013.2
20210927125416 58 62 0.0 0.0 0.00 0.00 0.00 87 1013.4
20210927124417 57 62 0.0 0.0 0.00 0.00 0.00 89 1013.4
20210927123416 56 19 0.0 1.0 0.00 0.00 0.00 91 1013.5
20210927122416 54 19 0.0 2.0 0.00 0.00 0.00 93 1013.5
20210927121416 53 19 0.0 0.0 0.00 0.00 0.00 94 1013.5
20210927120416 53 19 0.0 0.0 0.00 0.00 0.00 94 1013.6
20210927115416 52 19 0.0 0.0 0.00 0.00 0.00 94 1013.5
20210927114416 51 19 0.0 0.0 0.00 0.00 0.00 94 1013.5
20210927113417 51 19 0.0 0.0 0.00 0.00 0.00 94 1013.6
20210927112417 51 19 0.0 0.0 0.00 0.00 0.00 94 1013.5
20210927111416 50 19 0.0 0.0 0.00 0.00 0.00 94 1013.3
20210927110416 50 19 0.0 0.0 0.00 0.00 0.00 93 1013.3
20210927105416 50 19 0.0 0.0 0.00 0.00 0.00 93 1013.2
20210927104416 51 19 0.0 0.0 0.00 0.00 0.00 93 1013.5
20210927103417 51 19 0.0 0.0 0.00 0.00 0.00 93 1013.4
20210927102416 51 19 0.0 0.0 0.00 0.00 0.00 92 1013.4
20210927101416 51 19 0.0 0.0 0.00 0.00 0.00 93 1013.3
20210927100416 51 19 0.0 0.0 0.00 0.00 0.00 92 1013.2
20210927095417 51 19 0.0 0.0 0.00 0.00 0.00 92 1013.1
20210927094417 51 19 0.0 0.0 0.00 0.00 0.00 91 1013.2
20210927093416 51 19 0.0 0.0 0.00 0.00 0.00 91 1013.0
20210927092416 52 19 0.0 0.0 0.00 0.00 0.00 91 1013.1
20210927091416 52 19 0.0 0.0 0.00 0.00 0.00 90 1013.0
20210927090416 52 19 0.0 0.0 0.00 0.00 0.00 90 1013.1
20210927085416 52 19 0.0 0.0 0.00 0.00 0.00 90 1013.0
20210927084416 52 19 0.0 0.0 0.00 0.00 0.00 90 1013.1
20210927083416 52 19 0.0 0.0 0.00 0.00 0.00 89 1013.1
20210927082416 52 19 0.0 1.0 0.00 0.00 0.00 89 1013.0
20210927081416 52 19 0.0 1.0 0.00 0.00 0.00 89 1013.0
20210927080416 53 19 0.0 1.0 0.00 0.00 0.00 89 1013.0
20210927075417 53 19 0.0 1.0 0.00 0.00 0.00 88 1013.0
20210927074417 53 19 0.0 2.0 0.00 0.00 0.00 88 1013.0
20210927073417 53 19 0.0 1.0 0.00 0.00 0.00 88 1012.9
20210927072417 53 19 0.0 1.0 0.00 0.00 0.00 88 1013.0
20210927071417 53 19 0.0 1.0 0.00 0.00 0.00 87 1012.9
20210927070417 54 19 0.0 0.0 0.00 0.00 0.00 87 1013.0
20210927065417 54 19 0.0 1.0 0.00 0.00 0.00 87 1013.0
20210927064417 53 19 0.0 1.0 0.00 0.00 0.00 87 1012.8
20210927063417 53 19 0.0 2.0 0.00 0.00 0.00 88 1012.7